Location: Home
(42.5358°N, 72.7383°W)
Time: 09:53:26
(UTC-04:00)

A-11 Canister half - Pass Details

Date: 05 July 2022
Orbit: 1514 x 1685 km, 47.2° (Epoch: 15 August)

Event Time Altitude Azimuth Distance (km) Brightness Sun altitude
Rises 04:08:47 0° 296° (WNW) 4,912 11.5 -11.0°
Reaches altitude 10° 04:12:02 10° 293° (WNW) 3,905 10.9 -10.5°
Maximum altitude 04:21:40 57° 218° (SW) 1,856 9.1 -9.3°
Drops below altitude 10° 04:30:57 10° 143° (SE) 3,763 11.0 -8.0°
Sets 04:34:03 0° 140° (SE) 4,723 11.6 -7.6°
